EW8046 Weather Reports


time (UTC)temp
C
wind
direction
speed
KPH
gust
KPH
rain 1hr
cm
rain 24hr
cm
rain mn
cm
humidity
%
barometer
mb
20260504001603 22 350 6.4 11.3 0.00 0.00 0.00 53 1010.1
20260504001102 22 327 8.0 11.3 0.00 0.00 0.00 52 1010.1
20260504000601 23 349 11.3 19.3 0.00 0.00 0.00 50 1010.1
20260503235102 23 25 12.9 20.9 0.00 0.00 0.00 48 1010.3
20260503234602 23 0 11.3 17.7 0.00 0.00 0.00 50 1010.3
20260503234101 22 9 12.9 19.3 0.00 0.00 0.00 52 1010.3
20260503233602 23 13 12.9 19.3 0.00 0.00 0.00 51 1010.5
20260503233102 23 26 12.9 19.3 0.00 0.00 0.00 50 1010.6
20260503232601 23 26 12.9 19.3 0.00 0.00 0.00 50 1010.6
20260503232101 22 13 12.9 20.9 0.00 0.00 0.00 51 1010.7
20260503231603 22 17 11.3 20.9 0.00 0.00 0.00 50 1010.8
20260503231100 22 5 11.3 16.1 0.00 0.00 0.00 52 1010.8
20260503230100 22 11 11.3 17.7 0.00 0.00 0.00 52 1010.9
20260503225102 22 19 14.5 20.9 0.00 0.00 0.00 51 1011.1
20260503224602 22 19 12.9 20.9 0.00 0.00 0.00 50 1011.3
20260503224101 22 5 12.9 20.9 0.00 0.00 0.00 50 1011.3
20260503223601 22 32 12.9 17.7 0.00 0.00 0.00 51 1011.4
20260503223100 22 17 11.3 16.1 0.00 0.00 0.00 52 1011.5
20260503222600 22 5 9.7 16.1 0.00 0.00 0.00 52 1011.6
20260503221602 21 5 9.7 16.1 0.00 0.00 0.00 56 1011.6
20260503221101 21 355 9.7 16.1 0.00 0.00 0.00 56 1011.7
20260503220601 21 0 12.9 19.3 0.00 0.00 0.00 59 1011.7
20260503220101 20 11 12.9 19.3 0.00 0.00 0.00 59 1011.8
20260503215601 20 5 11.3 19.3 0.00 0.00 0.00 61 1011.8
20260503215101 19 342 6.4 17.7 0.00 0.00 0.00 62 1011.9
20260503214602 19 34 6.4 9.7 0.00 0.00 0.00 63 1011.8
20260503214103 20 9 6.4 8.0 0.00 0.00 0.00 63 1011.9
20260503213600 20 0 4.8 9.7 0.00 0.00 0.00 62 1011.9
20260503213100 20 5 4.8 9.7 0.00 0.00 0.00 60 1012.0
20260503212601 20 0 6.4 12.9 0.00 0.00 0.00 59 1012.0
20260503212101 20 5 6.4 12.9 0.00 0.00 0.00 58 1012.1
20260503211600 20 28 6.4 11.3 0.00 0.00 0.00 58 1012.1
20260503211101 20 29 4.8 9.7 0.00 0.00 0.00 58 1012.2
20260503210601 20 5 6.4 16.1 0.00 0.00 0.00 58 1012.2
20260503210101 20 9 8.0 16.1 0.00 0.00 0.00 56 1012.3
20260503205101 20 342 9.7 19.3 0.00 0.00 0.00 58 1012.5
20260503204602 19 15 8.0 19.3 0.00 0.00 0.00 58 1012.5
20260503204101 19 30 6.4 12.9 0.00 0.00 0.00 62 1012.6
20260503203601 18 27 4.8 11.3 0.00 0.00 0.00 63 1012.6
20260503203102 18 13 4.8 8.0 0.00 0.00 0.00 65 1012.7
20260503202601 18 344 4.8 12.9 0.00 0.00 0.00 65 1012.8
20260503202101 18 5 6.4 14.5 0.00 0.00 0.00 64 1012.8
20260503201603 18 17 6.4 20.9 0.00 0.00 0.00 64 1012.8
20260503201102 18 5 8.0 20.9 0.00 0.00 0.00 63 1012.9
20260503200600 18 82 6.4 16.1 0.00 0.00 0.00 63 1012.9
20260503200101 18 52 6.4 16.1 0.00 0.00 0.00 63 1012.9
20260503195601 18 21 6.4 14.5 0.00 0.00 0.00 63 1013.1
20260503195102 18 61 8.0 14.5 0.00 0.00 0.00 63 1013.2
20260503194603 18 37 6.4 16.1 0.00 0.00 0.00 63 1013.3
20260503194102 18 0 4.8 16.1 0.00 0.00 0.00 63 1013.3
20260503193601 18 336 4.8 12.9 0.00 0.00 0.00 64 1013.3
20260503193101 18 349 4.8 12.9 0.00 0.00 0.00 64 1013.4
20260503192601 19 307 6.4 16.1 0.00 0.00 0.00 64 1013.5
20260503192101 19 309 11.3 19.3 0.00 0.00 0.00 63 1013.5
20260503191102 19 17 12.9 19.3 0.00 0.00 0.00 64 1013.6
20260503190602 18 11 11.3 16.1 0.00 0.00 0.00 65 1013.7
20260503185601 18 342 9.7 17.7 0.00 0.00 0.00 66 1013.7
20260503184601 18 0 9.7 14.5 0.00 0.00 0.00 67 1013.8
20260503184100 17 348 9.7 14.5 0.00 0.00 0.00 67 1013.9
20260503183101 18 0 8.0 12.9 0.00 0.00 0.00 67 1014.0
20260503182601 18 355 8.0 14.5 0.00 0.00 0.00 65 1013.9
20260503182101 18 24 6.4 14.5 0.00 0.00 0.00 64 1013.9
20260503181601 18 5 6.4 11.3 0.00 0.00 0.00 63 1013.9
20260503181101 19 26 6.4 16.1 0.00 0.00 0.00 63 1014.0
20260503180601 18 71 6.4 16.1 0.00 0.00 0.00 63 1014.0
20260503175601 18 69 9.7 17.7 0.00 0.00 0.00 63 1014.0
20260503175102 18 40 8.0 17.7 0.00 0.00 0.00 64 1014.2
20260503174600 18 32 8.0 19.3 0.00 0.00 0.00 65 1014.2
20260503173600 17 99 8.0 12.9 0.00 0.00 0.00 66 1014.2
20260503173100 17 19 8.0 20.9 0.00 0.00 0.00 67 1014.3
20260503172101 17 27 4.8 14.5 0.00 0.00 0.00 67 1014.3
20260503171601 17 61 4.8 12.9 0.00 0.00 0.00 68 1014.3
20260503171101 17 5 3.2 8.0 0.00 0.00 0.00 69 1014.4
20260503150601 15 17 3.2 6.4 0.00 0.00 0.00 72 1014.6
20260503130600 13 69 1.6 12.9 0.00 0.00 0.00 75 1014.2
20260503110601 14 12 1.6 3.2 0.00 0.00 0.00 68 1014.4
20260503072029 16 239 0.0 1.6 0.00 0.00 0.00 65 1014.4
20260503071530 16 239 0.0 0.0 0.00 0.00 0.00 64 1014.5
20260503071029 16 239 0.0 1.6 0.00 0.00 0.00 63 1014.4
20260503070529 17 239 0.0 1.6 0.00 0.00 0.00 63 1014.4
20260503055029 20 39 9.7 19.3 0.00 0.00 0.00 47 1014.1
20260503054528 20 66 9.7 19.3 0.00 0.00 0.00 47 1014.1
20260503053528 20 27 8.0 14.5 0.00 0.00 0.00 48 1014.1
20260503053028 20 65 8.0 17.7 0.00 0.00 0.00 48 1014.1
20260503052529 20 80 8.0 17.7 0.00 0.00 0.00 47 1014.2
20260503051030 20 82 6.4 16.1 0.00 0.00 0.00 47 1014.1
20260503050529 20 71 8.0 16.1 0.00 0.00 0.00 46 1014.1
20260503050028 21 43 8.0 16.1 0.00 0.00 0.00 46 1014.1
20260503045529 21 76 8.0 16.1 0.00 0.00 0.00 46 1014.1
20260503044529 21 43 8.0 19.3 0.00 0.00 0.00 46 1014.1
20260503044028 21 78 9.7 19.3 0.00 0.00 0.00 46 1014.0
20260503043529 21 49 11.3 22.5 0.00 0.00 0.00 46 1014.0
20260503043029 21 43 11.3 22.5 0.00 0.00 0.00 46 1013.9
20260503042529 21 26 9.7 20.9 0.00 0.00 0.00 46 1013.9
20260503042029 21 41 11.3 24.1 0.00 0.00 0.00 46 1013.8
20260503041529 21 65 12.9 24.1 0.00 0.00 0.00 46 1013.8
20260503041029 21 40 11.3 20.9 0.00 0.00 0.00 47 1013.7
20260503040529 21 72 11.3 20.9 0.00 0.00 0.00 48 1013.7
20260503040030 20 44 11.3 20.9 0.00 0.00 0.00 48 1013.6
20260503035529 20 38 11.3 20.9 0.00 0.00 0.00 48 1013.6
20260503035030 20 22 9.7 19.3 0.00 0.00 0.00 49 1013.5
20260503034529 20 49 9.7 19.3 0.00 0.00 0.00 50 1013.4
20260503034028 20 22 9.7 19.3 0.00 0.00 0.00 51 1013.4
20260503033029 20 51 9.7 16.1 0.00 0.00 0.00 53 1013.3
20260503032530 20 10 9.7 19.3 0.00 0.00 0.00 53 1013.3
20260503032029 20 29 12.9 20.9 0.00 0.00 0.00 53 1013.2
20260503031528 20 13 12.9 20.9 0.00 0.00 0.00 53 1013.2
20260503031028 20 11 12.9 20.9 0.00 0.00 0.00 54 1013.2
20260503030530 20 10 16.1 24.1 0.00 0.00 0.00 54 1013.1
20260503030029 20 5 17.7 29.0 0.00 0.00 0.00 54 1013.1
20260503025529 20 9 16.1 29.0 0.00 0.00 0.00 53 1013.0
20260503024529 21 28 19.3 29.0 0.00 0.00 0.00 52 1013.1
20260503024028 21 20 19.3 32.2 0.00 0.00 0.00 51 1013.1
20260503023529 21 26 17.7 32.2 0.00 0.00 0.00 52 1013.1
20260503023030 20 23 17.7 27.4 0.00 0.00 0.00 54 1013.0
20260503022527 20 16 20.9 32.2 0.00 0.00 0.00 53 1013.0
20260503022021 20 0 24.1 32.2 0.00 0.00 0.00 52 1013.2
20260503021514 20 9 22.5 30.6 0.00 0.00 0.00 54 1013.1
20260503020510 20 5 20.9 30.6 0.00 0.00 0.00 54 1013.2
20260503020009 20 348 20.9 27.4 0.00 0.00 0.00 54 1013.1
20260503015510 20 15 19.3 25.7 0.00 0.00 0.00 54 1013.1
20260503015010 20 5 16.1 24.1 0.00 0.00 0.00 55 1013.2
20260503014510 20 5 14.5 22.5 0.00 0.00 0.00 55 1013.3
20260503014010 20 5 16.1 22.5 0.00 0.00 0.00 57 1013.3
20260503013510 20 355 16.1 22.5 0.00 0.00 0.00 55 1013.3
20260503013010 20 5 16.1 27.4 0.00 0.00 0.00 56 1013.3
20260503012510 19 0 17.7 27.4 0.00 0.00 0.00 58 1013.3
20260503012011 20 355 20.9 27.4 0.00 0.00 0.00 55 1013.4
20260503011510 20 355 20.9 27.4 0.00 0.00 0.00 54 1013.4
20260503011010 19 348 19.3 25.7 0.00 0.00 0.00 55 1013.4
20260503005510 19 15 17.7 24.1 0.00 0.00 0.00 57 1013.3
20260503005010 19 0 16.1 24.1 0.00 0.00 0.00 58 1013.3
20260503004508 19 15 14.5 22.5 0.00 0.00 0.00 60 1013.4
20260503004008 19 12 11.3 19.3 0.00 0.00 0.00 60 1013.4
20260503003506 19 0 11.3 17.7 0.00 0.00 0.00 60 1013.5
20260503003004 19 355 12.9 22.5 0.00 0.00 0.00 60 1013.4
20260503002504 19 13 17.7 25.7 0.00 0.00 0.00 59 1013.5
20260503002005 20 10 20.9 27.4 0.00 0.00 0.00 57 1013.6